Climatologie pour Saint-Brevin les Pins
Jour • Résumé pour février 27, 2017 Système :  Métrique    Anglais   Mixte
« - 1 jour
+ 1 jour »
Jour Semaine Mois Année Personnalisé
  Maximum : Minimum : Moyenne :
Température sous abri : -17.8 °C -14.6 °C -12.7 °C
Point de rosée : -17.8 °C -16 °C -13.7 °C
Humidité : Humidity % 75 % 89 %
Vitesse du vent : 0 km/h 5.1 km/h 25.9 km/h
Rafale : 0 km/h - -
Direction :- - WSW
Pression : 0 hPa 33775.4 hPa -
Précipitations : 535.94 mm    
Historical Graphs
 
 
Tableau de données pour février 27, 2017
Heure Tempé Pt rosée Pression Vent Vitesse Rafale Humidité Taux pluie (/hr) Soleil
-17.8 °C -17.8 °C 0 hPa Calm     Humidity % 0 mm SolarRadiationWatts/m^2 W/m2 Conditions
00:00 -12.1 °C -13.1 °C 34222.3 hPa SSW 18.2 km/h 33.6 km/h 89 % 0 mm 0 W/m2
00:10 -12.1 °C -13.1 °C 34222.3 hPa SW 15.6 km/h 33.6 km/h 89 % 0 mm 0 W/m2
00:15 -12.1 °C -13.1 °C 34222.3 hPa SSW 12.9 km/h 31.1 km/h 89 % 0 mm 0 W/m2
00:20 -12.1 °C -13.1 °C 34212.1 hPa SSW 10.3 km/h 31.1 km/h 89 % 0 mm 0 W/m2
00:25 -12.1 °C -13.2 °C 34212.1 hPa South 10.3 km/h 33.6 km/h 88 % 0 mm 0 W/m2
00:30 -12.1 °C -13.1 °C 34212.1 hPa SW 25.9 km/h 38.8 km/h 88 % 0 mm 0 W/m2
00:35 -12.1 °C -13.1 °C 34212.1 hPa SSW 15.6 km/h 46.7 km/h 88 % 0 mm 0 W/m2
00:40 -12.1 °C -13.1 °C 34212.1 hPa South 23.3 km/h 46.7 km/h 88 % 0 mm 0 W/m2
00:45 -12 °C -13.1 °C 34212.1 hPa SW 18.2 km/h 44.1 km/h 88 % 0 mm 0 W/m2
00:50 -11.9 °C -13.2 °C 34212.1 hPa SSW 20.8 km/h 38.8 km/h 86 % 0 mm 0 W/m2
00:55 -12 °C -13.2 °C 34198.6 hPa WSW 15.6 km/h 38.8 km/h 86 % 0 mm 0 W/m2
01:00 -12 °C -13.2 °C 34198.6 hPa SW 12.9 km/h 38.8 km/h 86 % 0 mm 0 W/m2
01:05 -12 °C -13.2 °C 34198.6 hPa WNW 12.9 km/h 36.2 km/h 86 % 0 mm 0 W/m2
01:10 -12 °C -13.3 °C 34188.4 hPa SW 10.3 km/h 36.2 km/h 86 % 0 mm 0 W/m2
01:15 -12 °C -13.3 °C 34188.4 hPa SSW 15.6 km/h 33.6 km/h 86 % 0 mm 0 W/m2
01:20 -12 °C -13.2 °C 34188.4 hPa SW 28.5 km/h 36.2 km/h 86 % 0 mm 0 W/m2
01:25 -11.9 °C -13.1 °C 34188.4 hPa WSW 20.8 km/h 36.2 km/h 87 % 0 mm 0 W/m2
01:30 -12 °C -13.1 °C 34188.4 hPa SW 15.6 km/h 41.4 km/h 87 % 0 mm 0 W/m2
01:35 -12 °C -13.1 °C 34178.3 hPa South 10.3 km/h 41.4 km/h 87 % 0 mm 0 W/m2
01:40 -12 °C -13.2 °C 34178.3 hPa SSW 18.2 km/h 38.8 km/h 87 % 0 mm 0 W/m2
01:45 -12 °C -13.3 °C 34178.3 hPa WSW 15.6 km/h 36.2 km/h 86 % 0 mm 0 W/m2
01:50 -12 °C -13.3 °C 34178.3 hPa WSW 18.2 km/h 38.8 km/h 86 % 0 mm 0 W/m2
01:55 -12 °C -13.3 °C 34164.7 hPa SW 12.9 km/h 38.8 km/h 86 % 0 mm 0 W/m2
02:00 -12.1 °C -13.2 °C 34164.7 hPa South 20.8 km/h 41.4 km/h 87 % 0 mm 0 W/m2
02:05 -12.1 °C -13.2 °C 34164.7 hPa West 15.6 km/h 44.1 km/h 87 % 0 mm 0 W/m2
02:10 -12.1 °C -13.2 °C 34154.6 hPa South 10.3 km/h 44.1 km/h 87 % 0 mm 0 W/m2
02:15 -12.1 °C -13.2 °C 34154.6 hPa SSW 5.1 km/h 36.2 km/h 88 % 0 mm 0 W/m2
02:20 -12.1 °C -13.2 °C 34154.6 hPa SW 23.3 km/h 33.6 km/h 88 % 0 mm 0 W/m2
02:25 -12.1 °C -13.2 °C 34154.6 hPa SW 15.6 km/h 38.8 km/h 88 % 0 mm 0 W/m2
02:30 -12.1 °C -13.2 °C 34154.6 hPa SSW 28.5 km/h 38.8 km/h 88 % 0 mm 0 W/m2
02:35 -12.1 °C -13.2 °C 34144.4 hPa SSW 18.2 km/h 38.8 km/h 88 % 0 mm 0 W/m2
02:40 -12.1 °C -13.2 °C 34144.4 hPa SW 23.3 km/h 49.2 km/h 88 % 0 mm 0 W/m2
02:45 -12.1 °C -13.1 °C 34144.4 hPa WSW 12.9 km/h 49.2 km/h 88 % 0 mm 0 W/m2
02:50 -12.1 °C -13.1 °C 34144.4 hPa SW 23.3 km/h 33.6 km/h 88 % 0 mm 0 W/m2
02:55 -12.1 °C -13.1 °C 34144.4 hPa West 12.9 km/h 33.6 km/h 88 % 0 mm 0 W/m2
03:00 -12.1 °C -13.2 °C 34130.9 hPa SW 5.1 km/h 33.6 km/h 88 % 0 mm 0 W/m2
03:05 -12.1 °C -13.2 °C 34130.9 hPa SW 5.1 km/h 28.5 km/h 88 % 0 mm 0 W/m2
03:10 -12.1 °C -13.2 °C 34130.9 hPa SW 23.3 km/h 33.6 km/h 88 % 0 mm 0 W/m2
03:15 -12.1 °C -13.1 °C 34120.7 hPa West 18.2 km/h 38.8 km/h 88 % 0 mm 0 W/m2
03:20 -12.1 °C -13.1 °C 34120.7 hPa South 23.3 km/h 41.4 km/h 88 % 0 mm 0 W/m2
03:25 -12 °C -13.1 °C 34120.7 hPa WSW 36.2 km/h 51.8 km/h 88 % 0 mm 0 W/m2
03:30 -12 °C -13.1 °C 34107.2 hPa SSW 10.3 km/h 51.8 km/h 88 % 0 mm 0 W/m2
03:35 -11.9 °C -13.1 °C 34097 hPa SSW 28.5 km/h 46.7 km/h 87 % 0 mm 0 W/m2
03:40 -11.9 °C -13.1 °C 34097 hPa SSW 28.5 km/h 51.8 km/h 87 % 0 mm 0 W/m2
03:45 -11.9 °C -13.1 °C 34086.9 hPa SSW 20.8 km/h 54.4 km/h 87 % 0 mm 0 W/m2
03:50 -11.9 °C -13.1 °C 34073.3 hPa SW 25.9 km/h 59.5 km/h 86 % 0 mm 0 W/m2
03:55 -11.9 °C -13.1 °C 34086.9 hPa South 18.2 km/h 59.5 km/h 87 % 0 mm 0 W/m2
04:00 -11.9 °C -13.1 °C 34086.9 hPa SW 23.3 km/h 51.8 km/h 87 % 0 mm 0 W/m2
04:05 -11.9 °C -13.1 °C 34073.3 hPa WSW 18.2 km/h 46.7 km/h 86 % 0 mm 0 W/m2
04:10 -11.8 °C -13.1 °C 34073.3 hPa SSW 15.6 km/h 46.7 km/h 86 % 0 mm 0 W/m2
04:20 -11.8 °C -13.1 °C 34063.2 hPa WSW 33.6 km/h 54.4 km/h 86 % 0 mm 0 W/m2
04:25 -11.8 °C -13 °C 34063.2 hPa SW 10.3 km/h 49.2 km/h 87 % 0 mm 0 W/m2
04:30 -11.8 °C -13 °C 34063.2 hPa SSW 15.6 km/h 49.2 km/h 87 % 0 mm 0 W/m2
04:40 -11.8 °C -13 °C 34049.6 hPa SSW 23.3 km/h 54.4 km/h 87 % 0 mm 0 W/m2
04:45 -11.8 °C -12.9 °C 34049.6 hPa SSW 5.1 km/h 54.4 km/h 88 % 0 mm 0 W/m2
04:50 -11.8 °C -12.9 °C 34049.6 hPa SW 23.3 km/h 41.4 km/h 88 % 0 mm 0 W/m2
04:55 -11.8 °C -12.9 °C 34049.6 hPa WSW 18.2 km/h 36.2 km/h 88 % 0 mm 0 W/m2
05:00 -11.8 °C -12.9 °C 34049.6 hPa SW 12.9 km/h 38.8 km/h 88 % 0 mm 0 W/m2
05:05 -11.8 °C -12.9 °C 34039.5 hPa SW 18.2 km/h 38.8 km/h 88 % 0 mm 0 W/m2
05:10 -11.8 °C -12.9 °C 34039.5 hPa WSW 15.6 km/h 36.2 km/h 88 % 0 mm 0 W/m2
05:15 -11.8 °C -12.8 °C 34039.5 hPa WSW 28.5 km/h 44.1 km/h 89 % 0 mm 0 W/m2
05:20 -11.8 °C -12.8 °C 34029.3 hPa SSW 36.2 km/h 46.7 km/h 89 % 0 mm 0 W/m2
05:25 -11.8 °C -12.8 °C 34015.8 hPa South 18.2 km/h 54.4 km/h 89 % 0 mm 0 W/m2
05:30 -11.8 °C -12.8 °C 34015.8 hPa SSE 41.4 km/h 54.4 km/h 89 % 0 mm 0 W/m2
05:40 -11.8 °C -12.8 °C 34015.8 hPa SSE 18.2 km/h 54.4 km/h 89 % 0 mm 0 W/m2
05:45 -11.8 °C -12.7 °C 34005.6 hPa SSW 31.1 km/h 69.8 km/h 89 % 0 mm 0 W/m2
05:50 -11.8 °C -12.6 °C 34005.6 hPa SSW 31.1 km/h 69.8 km/h 90 % 0 mm 0 W/m2
05:55 -11.8 °C -12.6 °C 34005.6 hPa SSW 18.2 km/h 57 km/h 90 % 0 mm 0 W/m2
06:00 -11.8 °C -12.6 °C 34005.6 hPa SSW 15.6 km/h 54.4 km/h 90 % 0 mm 0 W/m2
06:05 -11.8 °C -12.6 °C 33992.1 hPa South 20.8 km/h 51.8 km/h 91 % 0 mm 0 W/m2
06:10 -11.9 °C -12.6 °C 33992.1 hPa SW 25.9 km/h 51.8 km/h 92 % 7.62 mm 0 W/m2
06:15 -12 °C -12.7 °C 33992.1 hPa SSW 23.3 km/h 57 km/h 92 % 12.7 mm 0 W/m2
06:20 -12.1 °C -12.6 °C 33992.1 hPa SW 28.5 km/h 57 km/h 93 % 12.7 mm 0 W/m2
06:25 -12.1 °C -12.7 °C 33992.1 hPa SW 12.9 km/h 51.8 km/h 93 % 25.4 mm 0 W/m2
06:30 -12.1 °C -12.6 °C 33981.9 hPa SSW 23.3 km/h 54.4 km/h 94 % 33.02 mm 0 W/m2
06:35 -12.1 °C -12.6 °C 33981.9 hPa SSW 12.9 km/h 54.4 km/h 94 % 38.1 mm 0 W/m2
06:40 -12.2 °C -12.6 °C 33981.9 hPa SW 12.9 km/h 44.1 km/h 95 % 38.1 mm 0 W/m2
06:45 -12.2 °C -12.6 °C 33981.9 hPa SSW 25.9 km/h 44.1 km/h 95 % 58.42 mm 0 W/m2
06:50 -12.2 °C -12.6 °C 33971.7 hPa SW 28.5 km/h 51.8 km/h 95 % 63.5 mm 0 W/m2
06:55 -12.2 °C -12.6 °C 33971.7 hPa South 18.2 km/h 51.8 km/h 96 % 76.2 mm 0 W/m2
07:00 -12.2 °C -12.6 °C 33971.7 hPa SW 25.9 km/h 46.7 km/h 96 % 76.2 mm 0 W/m2
07:05 -12.2 °C -12.6 °C 33958.2 hPa SSW 57 km/h 57 km/h 96 % 76.2 mm 0 W/m2
07:10 -12.3 °C -12.6 °C 33958.2 hPa SW 44.1 km/h 57 km/h 96 % 76.2 mm 0 W/m2
07:15 -12.2 °C -12.6 °C 33948 hPa WSW 15.6 km/h 57 km/h 96 % 76.2 mm 0 W/m2
07:20 -12.2 °C -12.6 °C 33948 hPa South 25.9 km/h 46.7 km/h 96 % 76.2 mm 0 W/m2
07:25 -12.2 °C -12.4 °C 33937.9 hPa SSE 23.3 km/h 51.8 km/h 97 % 71.12 mm 0 W/m2
07:30 -12.2 °C -12.4 °C 33937.9 hPa SW 15.6 km/h 51.8 km/h 97 % 63.5 mm 0 W/m2
07:35 -12.2 °C -12.4 °C 33937.9 hPa SSW 18.2 km/h 57 km/h 97 % 58.42 mm 0 W/m2
07:40 -12.2 °C -12.4 °C 33937.9 hPa SW 25.9 km/h 62.1 km/h 97 % 58.42 mm 0 W/m2
07:45 -12.2 °C -12.4 °C 33924.3 hPa West 12.9 km/h 62.1 km/h 97 % 50.8 mm 0 W/m2
07:50 -12.2 °C -12.4 °C 33924.3 hPa SW 36.2 km/h 54.4 km/h 97 % 45.72 mm 0 W/m2
07:55 -12.2 °C -12.4 °C 33914.2 hPa SW 46.7 km/h 62.1 km/h 97 % 45.72 mm 0 W/m2
08:00 -12.2 °C -12.4 °C 33914.2 hPa SSW 18.2 km/h 62.1 km/h 97 % 50.8 mm 0 W/m2
08:05 -12.2 °C -12.4 °C 33900.6 hPa SW 38.8 km/h 59.5 km/h 97 % 58.42 mm 0 W/m2
08:10 -12.2 °C -12.4 °C 33900.6 hPa SSW 36.2 km/h 57 km/h 97 % 50.8 mm 0 W/m2
08:15 -12.2 °C -12.4 °C 33900.6 hPa SSW 23.3 km/h 64.7 km/h 97 % 50.8 mm 0 W/m2
08:20 -12.2 °C -12.4 °C 33900.6 hPa SW 38.8 km/h 64.7 km/h 97 % 45.72 mm 0 W/m2
08:25 -12.2 °C -12.4 °C 33900.6 hPa SSW 33.6 km/h 59.5 km/h 97 % 38.1 mm 5 W/m2
08:30 -12.2 °C -12.4 °C 33890.5 hPa SW 15.6 km/h 67.3 km/h 97 % 45.72 mm 5 W/m2
08:35 -12.2 °C -12.4 °C 33890.5 hPa SSW 33.6 km/h 67.3 km/h 97 % 50.8 mm 5 W/m2
08:40 -12.2 °C -12.4 °C 33890.5 hPa SSW 36.2 km/h 77.7 km/h 97 % 45.72 mm 9 W/m2
08:45 -12.1 °C -12.4 °C 33890.5 hPa WSW 31.1 km/h 77.7 km/h 97 % 38.1 mm 5 W/m2
08:50 -12.2 °C -12.4 °C 33890.5 hPa South 28.5 km/h 75.2 km/h 97 % 38.1 mm 9 W/m2
08:55 -12.2 °C -12.4 °C 33890.5 hPa West 31.1 km/h 67.3 km/h 97 % 33.02 mm 9 W/m2
09:00 -12.2 °C -12.4 °C 33880.3 hPa West 36.2 km/h 67.3 km/h 97 % 25.4 mm 7 W/m2
09:05 -12.2 °C -12.4 °C 33880.3 hPa West 20.8 km/h 57 km/h 97 % 20.32 mm 16 W/m2
09:10 -12.2 °C -12.4 °C 33880.3 hPa SW 18.2 km/h 59.5 km/h 97 % 20.32 mm 37 W/m2
09:15 -12.2 °C -12.4 °C 33880.3 hPa WSW 15.6 km/h 59.5 km/h 97 % 20.32 mm 19 W/m2
09:20 -12.2 °C -12.4 °C 33880.3 hPa SW 25.9 km/h 59.5 km/h 97 % 25.4 mm 76 W/m2
09:25 -12.2 °C -12.4 °C 33866.8 hPa WSW 12.9 km/h 51.8 km/h 97 % 20.32 mm 65 W/m2
09:30 -12.2 °C -12.4 °C 33866.8 hPa SW 31.1 km/h 54.4 km/h 97 % 20.32 mm 53 W/m2
09:35 -12.1 °C -12.4 °C 33866.8 hPa West 25.9 km/h 64.7 km/h 97 % 12.7 mm 40 W/m2
09:40 -12.1 °C -12.4 °C 33866.8 hPa SSW 18.2 km/h 64.7 km/h 97 % 12.7 mm 28 W/m2
09:45 -12.2 °C -12.4 °C 33866.8 hPa West 18.2 km/h 62.1 km/h 97 % 12.7 mm 26 W/m2
09:50 -12.2 °C -12.4 °C 33866.8 hPa WSW 28.5 km/h 80.3 km/h 97 % 45.72 mm 42 W/m2
09:55 -12.1 °C -12.4 °C 33856.6 hPa West 31.1 km/h 80.3 km/h 97 % 96.52 mm 54 W/m2
10:00 -12.3 °C -12.5 °C 33856.6 hPa West 25.9 km/h 62.1 km/h 97 % 109.22 mm 35 W/m2
10:05 -12.4 °C -12.8 °C 33866.8 hPa WSW 33.6 km/h 67.3 km/h 96 % 147.32 mm 23 W/m2
10:10 -12.6 °C -12.9 °C 33856.6 hPa WSW 18.2 km/h 67.3 km/h 97 % 180.34 mm 28 W/m2
10:15 -12.6 °C -12.8 °C 33856.6 hPa SW 25.9 km/h 64.7 km/h 97 % 200.66 mm 26 W/m2
10:20 -12.5 °C -12.8 °C 33856.6 hPa WSW 10.3 km/h 59.5 km/h 97 % 193.04 mm 33 W/m2
10:25 -12.5 °C -12.8 °C 33843.1 hPa SW 10.3 km/h 46.7 km/h 97 % 200.66 mm 30 W/m2
10:30 -12.3 °C -12.6 °C 33843.1 hPa WSW 28.5 km/h 51.8 km/h 97 % 200.66 mm 113 W/m2
10:35 -12.2 °C -12.4 °C 33843.1 hPa SW 20.8 km/h 51.8 km/h 97 % 200.66 mm 151 W/m2
10:40 -12.1 °C -12.4 °C 33843.1 hPa WSW 7.7 km/h 62.1 km/h 97 % 200.66 mm 105 W/m2
10:45 -12.3 °C -12.6 °C 33843.1 hPa West 18.2 km/h 62.1 km/h 96 % 193.04 mm 102 W/m2
10:50 -12.4 °C -12.8 °C 33843.1 hPa WSW 25.9 km/h 57 km/h 96 % 160.02 mm 156 W/m2
10:55 -12.4 °C -12.8 °C 33843.1 hPa SSW 25.9 km/h 57 km/h 96 % 109.22 mm 178 W/m2
11:00 -12.3 °C -12.7 °C 33843.1 hPa WSW 7.7 km/h 62.1 km/h 96 % 104.14 mm 264 W/m2
11:05 -12.2 °C -12.6 °C 33843.1 hPa SW 18.2 km/h 62.1 km/h 96 % 50.8 mm 144 W/m2
11:10 -12.2 °C -12.7 °C 33843.1 hPa WSW 33.6 km/h 69.8 km/h 95 % 20.32 mm 104 W/m2
11:15 -12.3 °C -12.8 °C 33843.1 hPa SSW 23.3 km/h 69.8 km/h 94 % 7.62 mm 102 W/m2
11:20 -12.3 °C -12.8 °C 33832.9 hPa West 38.8 km/h 59.5 km/h 94 % 7.62 mm 134 W/m2
11:25 -12.2 °C -12.7 °C 33832.9 hPa WSW 33.6 km/h 54.4 km/h 94 % 0 mm 135 W/m2
11:30 -11.9 °C -12.4 °C 33832.9 hPa WSW 15.6 km/h 51.8 km/h 94 % 0 mm 471 W/m2
11:40 -11.4 °C -12.2 °C 33832.9 hPa WSW 33.6 km/h 51.8 km/h 91 % 0 mm 717 W/m2
11:45 -11.3 °C -12.2 °C 33832.9 hPa WSW 18.2 km/h 59.5 km/h 89 % 0 mm 418 W/m2
11:50 -11.4 °C -12.6 °C 33822.8 hPa West 15.6 km/h 62.1 km/h 87 % 0 mm 163 W/m2
11:55 -11.8 °C -13.1 °C 33843.1 hPa West 72.6 km/h 72.6 km/h 85 % 0 mm 176 W/m2
12:00 -12.4 °C -13.4 °C 33843.1 hPa NW 28.5 km/h 77.7 km/h 88 % 0 mm 23 W/m2
12:05 -12.7 °C -13.4 °C 33832.9 hPa West 33.6 km/h 77.7 km/h 91 % 12.7 mm 39 W/m2
12:10 -12.8 °C -13.6 °C 33832.9 hPa NW 25.9 km/h 62.1 km/h 91 % 12.7 mm 118 W/m2
12:15 -12.7 °C -13.3 °C 33832.9 hPa West 18.2 km/h 54.4 km/h 93 % 12.7 mm 174 W/m2
12:20 -12.6 °C -13.1 °C 33822.8 hPa WNW 25.9 km/h 46.7 km/h 94 % 12.7 mm 158 W/m2
12:25 -12.6 °C -13.1 °C 33832.9 hPa West 23.3 km/h 54.4 km/h 94 % 12.7 mm 90 W/m2
12:30 -12.7 °C -13.2 °C 33832.9 hPa WSW 25.9 km/h 54.4 km/h 94 % 12.7 mm 46 W/m2
12:40 -13.2 °C -13.9 °C 33843.1 hPa NW 28.5 km/h 95.8 km/h 91 % 38.1 mm 69 W/m2
12:45 -13.4 °C -14.1 °C 33843.1 hPa West 25.9 km/h 95.8 km/h 92 % 38.1 mm 81 W/m2
12:50 -13.4 °C -13.9 °C 33843.1 hPa West 28.5 km/h 75.2 km/h 93 % 38.1 mm 93 W/m2
12:55 -13.3 °C -13.9 °C 33832.9 hPa West 57 km/h 75.2 km/h 93 % 50.8 mm 83 W/m2
13:00 -13.2 °C -13.8 °C 33832.9 hPa WNW 7.7 km/h 69.8 km/h 93 % 50.8 mm 227 W/m2
13:05 -13.1 °C -13.7 °C 33822.8 hPa West 41.4 km/h 64.7 km/h 93 % 38.1 mm 153 W/m2
13:10 -13 °C -13.6 °C 33822.8 hPa West 28.5 km/h 57 km/h 93 % 38.1 mm 97 W/m2
13:15 -12.9 °C -13.7 °C 33822.8 hPa West 38.8 km/h 54.4 km/h 92 % 38.1 mm 216 W/m2
13:20 -12.8 °C -13.5 °C 33822.8 hPa WNW 23.3 km/h 54.4 km/h 92 % 38.1 mm 237 W/m2
13:25 -12.8 °C -13.6 °C 33822.8 hPa West 33.6 km/h 51.8 km/h 91 % 38.1 mm 202 W/m2
13:30 -12.8 °C -13.6 °C 33809.2 hPa WSW 20.8 km/h 51.8 km/h 91 % 38.1 mm 100 W/m2
13:35 -12.8 °C -13.6 °C 33809.2 hPa West 23.3 km/h 49.2 km/h 91 % 20.32 mm 53 W/m2
13:40 -12.9 °C -13.7 °C 33822.8 hPa WNW 36.2 km/h 57 km/h 91 % 25.4 mm 35 W/m2
13:45 -13.2 °C -14 °C 33832.9 hPa WNW 18.2 km/h 72.6 km/h 91 % 38.1 mm 114 W/m2
13:50 -13.7 °C -14.4 °C 33832.9 hPa West 49.2 km/h 72.6 km/h 91 % 38.1 mm 62 W/m2
13:55 -13.8 °C -14.5 °C 33832.9 hPa WNW 20.8 km/h 69.8 km/h 92 % 38.1 mm 30 W/m2
14:00 -13.9 °C -14.5 °C 33822.8 hPa SW 31.1 km/h 69.8 km/h 93 % 50.8 mm 44 W/m2
14:05 -13.9 °C -14.4 °C 33822.8 hPa West 31.1 km/h 67.3 km/h 94 % 58.42 mm 46 W/m2
14:10 -13.8 °C -14.3 °C 33809.2 hPa West 23.3 km/h 62.1 km/h 94 % 71.12 mm 83 W/m2
14:15 -13.7 °C -14.1 °C 33799.1 hPa WNW 12.9 km/h 54.4 km/h 95 % 71.12 mm 155 W/m2
14:20 -13.5 °C -13.9 °C 33788.9 hPa West 18.2 km/h 51.8 km/h 95 % 71.12 mm 186 W/m2
14:25 -13.2 °C -13.6 °C 33788.9 hPa West 10.3 km/h 46.7 km/h 96 % 71.12 mm 227 W/m2
14:30 -13.2 °C -13.7 °C 33788.9 hPa WSW 41.4 km/h 46.7 km/h 94 % 71.12 mm 186 W/m2
14:35 -13.1 °C -13.6 °C 33788.9 hPa WNW 18.2 km/h 49.2 km/h 94 % 71.12 mm 267 W/m2
14:40 -12.9 °C -13.6 °C 33788.9 hPa West 15.6 km/h 49.2 km/h 93 % 58.42 mm 153 W/m2
14:45 -12.9 °C -13.5 °C 33788.9 hPa WSW 25.9 km/h 46.7 km/h 93 % 45.72 mm 155 W/m2
14:50 -12.9 °C -13.6 °C 33788.9 hPa West 49.2 km/h 64.7 km/h 92 % 38.1 mm 185 W/m2
14:55 -12.7 °C -13.5 °C 33788.9 hPa West 33.6 km/h 64.7 km/h 91 % 33.02 mm 211 W/m2
15:00 -12.6 °C -13.5 °C 33788.9 hPa SW 33.6 km/h 62.1 km/h 90 % 20.32 mm 232 W/m2
15:05 -12.6 °C -13.6 °C 33788.9 hPa SW 12.9 km/h 62.1 km/h 89 % 7.62 mm 207 W/m2
15:10 -12.6 °C -13.4 °C 33788.9 hPa WNW 20.8 km/h 62.1 km/h 90 % 0 mm 167 W/m2
15:15 -12.6 °C -13.5 °C 33788.9 hPa WSW 23.3 km/h 54.4 km/h 89 % 0 mm 232 W/m2
15:20 -12.4 °C -13.4 °C 33775.4 hPa West 18.2 km/h 54.4 km/h 89 % 0 mm 181 W/m2
15:25 -12.5 °C -13.6 °C 33788.9 hPa South 10.3 km/h 46.7 km/h 88 % 0 mm 76 W/m2
15:30 -12.7 °C -13.8 °C 33788.9 hPa WSW 33.6 km/h 59.5 km/h 87 % 0 mm 211 W/m2
15:40 -12.8 °C -13.8 °C 33775.4 hPa WSW 12.9 km/h 64.7 km/h 89 % 0 mm 32 W/m2
15:45 -12.9 °C -13.8 °C 33788.9 hPa West 25.9 km/h 46.7 km/h 90 % 0 mm 37 W/m2
15:50 -13.2 °C -14 °C 33788.9 hPa West 49.2 km/h 49.2 km/h 90 % 7.62 mm 69 W/m2
15:55 -13.3 °C -14.2 °C 33788.9 hPa WNW 51.8 km/h 59.5 km/h 90 % 7.62 mm 63 W/m2
16:00 -13.4 °C -14.3 °C 33788.9 hPa WNW 38.8 km/h 59.5 km/h 89 % 12.7 mm 58 W/m2
16:05 -13.3 °C -14.2 °C 33788.9 hPa WSW 49.2 km/h 57 km/h 90 % 12.7 mm 109 W/m2
16:10 -13.2 °C -14.1 °C 33775.4 hPa West 31.1 km/h 62.1 km/h 90 % 12.7 mm 81 W/m2
16:15 -13.2 °C -14.1 °C 33799.1 hPa WNW 33.6 km/h 62.1 km/h 90 % 12.7 mm 65 W/m2
16:20 -13.4 °C -14.4 °C 33799.1 hPa NW 33.6 km/h 67.3 km/h 89 % 12.7 mm 60 W/m2
16:25 -13.7 °C -14.4 °C 33799.1 hPa WSW 33.6 km/h 67.3 km/h 91 % 12.7 mm 62 W/m2
16:30 -13.7 °C -14.4 °C 33799.1 hPa WNW 33.6 km/h 67.3 km/h 92 % 12.7 mm 72 W/m2
16:35 -13.6 °C -14.3 °C 33799.1 hPa WNW 20.8 km/h 67.3 km/h 92 % 12.7 mm 77 W/m2
16:40 -13.5 °C -14.3 °C 33788.9 hPa West 25.9 km/h 64.7 km/h 91 % 12.7 mm 160 W/m2
16:45 -13.4 °C -14.2 °C 33788.9 hPa WNW 28.5 km/h 64.7 km/h 90 % 12.7 mm 118 W/m2
16:50 -13.3 °C -14.7 °C 33788.9 hPa SSW 15.6 km/h 80.3 km/h 85 % 12.7 mm 88 W/m2
16:55 -13.3 °C -14.7 °C 33775.4 hPa WNW 49.2 km/h 80.3 km/h 85 % 12.7 mm 70 W/m2
17:00 -13.4 °C -14.8 °C 33775.4 hPa West 33.6 km/h 69.8 km/h 84 % 7.62 mm 79 W/m2
17:10 -13.3 °C -14.6 °C 33775.4 hPa West 28.5 km/h 62.1 km/h 85 % 7.62 mm 54 W/m2
17:15 -13.2 °C -14.6 °C 33775.4 hPa NW 28.5 km/h 59.5 km/h 85 % 7.62 mm 49 W/m2
17:20 -13.2 °C -14.4 °C 33775.4 hPa WSW 46.7 km/h 57 km/h 86 % 7.62 mm 44 W/m2
17:25 -13.2 °C -14.5 °C 33788.9 hPa NW 18.2 km/h 57 km/h 85 % 7.62 mm 47 W/m2
17:30 -13.2 °C -14.5 °C 33775.4 hPa West 20.8 km/h 57 km/h 85 % 7.62 mm 40 W/m2
17:35 -13.2 °C -14.4 °C 33788.9 hPa WSW 12.9 km/h 57 km/h 86 % 0 mm 42 W/m2
17:40 -13.2 °C -14.4 °C 33788.9 hPa West 51.8 km/h 59.5 km/h 85 % 0 mm 28 W/m2
17:45 -13.1 °C -14.5 °C 33775.4 hPa WNW 28.5 km/h 64.7 km/h 84 % 0 mm 32 W/m2
17:50 -13.1 °C -14.5 °C 33775.4 hPa WNW 25.9 km/h 75.2 km/h 84 % 7.62 mm 11 W/m2
17:55 -13.1 °C -15 °C 33775.4 hPa WNW 88 km/h 88 km/h 79 % 7.62 mm 14 W/m2
18:00 -13.1 °C -15 °C 33775.4 hPa NNW 38.8 km/h 88 km/h 79 % 7.62 mm 11 W/m2
18:10 -13 °C -15.1 °C 33775.4 hPa WNW 38.8 km/h 75.2 km/h 77 % 7.62 mm 35 W/m2
18:15 -13.3 °C -15.2 °C 33788.9 hPa WNW 23.3 km/h 75.2 km/h 79 % 7.62 mm 42 W/m2
18:20 -13.4 °C -15.2 °C 33788.9 hPa West 36.2 km/h 75.2 km/h 80 % 7.62 mm 54 W/m2
18:25 -13.4 °C -15.1 °C 33788.9 hPa WNW 28.5 km/h 64.7 km/h 81 % 7.62 mm 47 W/m2
18:30 -13.4 °C -15.1 °C 33788.9 hPa WNW 33.6 km/h 69.8 km/h 81 % 7.62 mm 21 W/m2
18:35 -13.4 °C -15.1 °C 33788.9 hPa WSW 12.9 km/h 72.6 km/h 82 % 7.62 mm 14 W/m2
18:40 -13.4 °C -14.9 °C 33788.9 hPa WNW 15.6 km/h 72.6 km/h 83 % 7.62 mm 7 W/m2
18:45 -13.4 °C -14.9 °C 33788.9 hPa West 25.9 km/h 51.8 km/h 84 % 7.62 mm 5 W/m2
18:50 -13.5 °C -14.8 °C 33775.4 hPa West 18.2 km/h 44.1 km/h 85 % 0 mm 0 W/m2
18:55 -13.4 °C -14.7 °C 33788.9 hPa WNW 23.3 km/h 49.2 km/h 85 % 0 mm 0 W/m2
19:00 -13.3 °C -14.9 °C 33788.9 hPa WNW 54.4 km/h 59.5 km/h 82 % 0 mm 0 W/m2
19:05 -13.2 °C -14.9 °C 33788.9 hPa West 33.6 km/h 59.5 km/h 81 % 0 mm 0 W/m2
19:10 -13.2 °C -14.8 °C 33788.9 hPa WNW 31.1 km/h 69.8 km/h 81 % 0 mm 0 W/m2
19:15 -13.1 °C -14.9 °C 33788.9 hPa West 20.8 km/h 69.8 km/h 80 % 0 mm 0 W/m2
19:20 -13.1 °C -14.8 °C 33788.9 hPa WSW 18.2 km/h 59.5 km/h 81 % 0 mm 0 W/m2
19:25 -13.1 °C -14.9 °C 33788.9 hPa West 28.5 km/h 54.4 km/h 80 % 0 mm 0 W/m2
19:30 -13.1 °C -14.9 °C 33788.9 hPa West 41.4 km/h 80.3 km/h 80 % 0 mm 0 W/m2
19:40 -13 °C -15.1 °C 33799.1 hPa West 49.2 km/h 82.9 km/h 77 % 0 mm 0 W/m2
19:45 -12.9 °C -15.1 °C 33788.9 hPa WSW 25.9 km/h 82.9 km/h 77 % 0 mm 0 W/m2
19:50 -12.9 °C -15.1 °C 33788.9 hPa WNW 20.8 km/h 59.5 km/h 77 % 0 mm 0 W/m2
19:55 -12.9 °C -15 °C 33788.9 hPa West 49.2 km/h 57 km/h 78 % 0 mm 0 W/m2
20:00 -12.9 °C -14.9 °C 33788.9 hPa West 36.2 km/h 62.1 km/h 79 % 0 mm 0 W/m2
20:05 -13.1 °C -14.8 °C 33788.9 hPa WNW 46.7 km/h 67.3 km/h 81 % 0 mm 0 W/m2
20:10 -13 °C -15.1 °C 33788.9 hPa WNW 67.3 km/h 69.8 km/h 77 % 0 mm 0 W/m2
20:15 -12.9 °C -15.3 °C 33788.9 hPa NW 28.5 km/h 82.9 km/h 75 % 0 mm 0 W/m2
20:20 -13 °C -15.3 °C 33799.1 hPa West 25.9 km/h 82.9 km/h 75 % 0 mm 0 W/m2
20:25 -13 °C -15.1 °C 33799.1 hPa West 36.2 km/h 72.6 km/h 77 % 0 mm 0 W/m2
20:30 -12.9 °C -15 °C 33799.1 hPa West 31.1 km/h 72.6 km/h 78 % 0 mm 0 W/m2
20:35 -12.9 °C -15 °C 33799.1 hPa NNW 23.3 km/h 59.5 km/h 78 % 0 mm 0 W/m2
20:40 -13 °C -15.1 °C 33799.1 hPa West 23.3 km/h 59.5 km/h 77 % 0 mm 0 W/m2
20:45 -13 °C -15.1 °C 33799.1 hPa WNW 28.5 km/h 64.7 km/h 77 % 0 mm 0 W/m2
20:50 -13.2 °C -15.4 °C 33799.1 hPa WNW 36.2 km/h 64.7 km/h 76 % 0 mm 0 W/m2
20:55 -13.2 °C -15.3 °C 33799.1 hPa West 31.1 km/h 57 km/h 77 % 0 mm 0 W/m2
21:00 -13.2 °C -15.3 °C 33799.1 hPa West 23.3 km/h 62.1 km/h 77 % 0 mm 0 W/m2
21:05 -13.2 °C -15.2 °C 33799.1 hPa WNW 15.6 km/h 62.1 km/h 78 % 0 mm 0 W/m2
21:10 -13.4 °C -15.4 °C 33799.1 hPa NW 33.6 km/h 49.2 km/h 78 % 0 mm 0 W/m2
21:15 -13.4 °C -15.3 °C 33809.2 hPa WNW 41.4 km/h 46.7 km/h 79 % 0 mm 0 W/m2
21:20 -13.4 °C -15.4 °C 33809.2 hPa NNW 36.2 km/h 59.5 km/h 78 % 0 mm 0 W/m2
21:25 -13.6 °C -15.7 °C 33809.2 hPa WNW 38.8 km/h 69.8 km/h 77 % 0 mm 0 W/m2
21:30 -13.8 °C -15.7 °C 33822.8 hPa NW 33.6 km/h 69.8 km/h 79 % 0 mm 0 W/m2
21:35 -14.1 °C -15.6 °C 33832.9 hPa WNW 41.4 km/h 67.3 km/h 82 % 0 mm 0 W/m2
21:40 -14.3 °C -15.5 °C 33832.9 hPa NW 36.2 km/h 67.3 km/h 86 % 12.7 mm 0 W/m2
21:45 -14.4 °C -15.4 °C 33832.9 hPa WNW 28.5 km/h 67.3 km/h 88 % 12.7 mm 0 W/m2
21:50 -14.5 °C -15.5 °C 33832.9 hPa West 7.7 km/h 64.7 km/h 88 % 12.7 mm 0 W/m2
21:55 -14.6 °C -15.6 °C 33832.9 hPa West 25.9 km/h 59.5 km/h 89 % 12.7 mm 0 W/m2
22:00 -14.6 °C -15.4 °C 33832.9 hPa NW 36.2 km/h 49.2 km/h 90 % 12.7 mm 0 W/m2
22:05 -14.4 °C -15.3 °C 33832.9 hPa NW 20.8 km/h 51.8 km/h 90 % 12.7 mm 0 W/m2
22:10 -14.4 °C -15.3 °C 33843.1 hPa WNW 31.1 km/h 64.7 km/h 90 % 20.32 mm 0 W/m2
22:15 -14.5 °C -15.3 °C 33832.9 hPa NW 7.7 km/h 64.7 km/h 90 % 20.32 mm 0 W/m2
22:20 -14.6 °C -15.5 °C 33822.8 hPa NW 31.1 km/h 67.3 km/h 89 % 25.4 mm 0 W/m2
22:25 -14.5 °C -15.5 °C 33822.8 hPa WNW 25.9 km/h 72.6 km/h 88 % 25.4 mm 0 W/m2
22:30 -14.4 °C -15.5 °C 33822.8 hPa West 18.2 km/h 72.6 km/h 87 % 25.4 mm 0 W/m2
22:35 -14.4 °C -15.5 °C 33809.2 hPa West 33.6 km/h 44.1 km/h 87 % 25.4 mm 0 W/m2
22:40 -14.3 °C -15.6 °C 33822.8 hPa West 15.6 km/h 49.2 km/h 86 % 12.7 mm 0 W/m2
22:45 -14.3 °C -15.4 °C 33809.2 hPa WSW 20.8 km/h 49.2 km/h 86 % 12.7 mm 0 W/m2
22:50 -14.2 °C -15.4 °C 33809.2 hPa West 20.8 km/h 49.2 km/h 86 % 12.7 mm 0 W/m2
22:55 -14.1 °C -15.3 °C 33809.2 hPa WNW 15.6 km/h 44.1 km/h 86 % 12.7 mm 0 W/m2
23:00 -14.1 °C -15.3 °C 33822.8 hPa West 33.6 km/h 44.1 km/h 86 % 12.7 mm 0 W/m2
23:05 -14 °C -15.2 °C 33809.2 hPa West 20.8 km/h 44.1 km/h 86 % 12.7 mm 0 W/m2
23:10 -14 °C -15.1 °C 33809.2 hPa WNW 12.9 km/h 44.1 km/h 87 % 7.62 mm 0 W/m2
23:15 -13.8 °C -14.9 °C 33809.2 hPa West 46.7 km/h 49.2 km/h 88 % 7.62 mm 0 W/m2
23:20 -13.7 °C -15 °C 33809.2 hPa West 41.4 km/h 57 km/h 85 % 0 mm 0 W/m2
23:25 -13.5 °C -15.1 °C 33809.2 hPa WNW 41.4 km/h 75.2 km/h 82 % 0 mm 0 W/m2
23:30 -13.5 °C -15.1 °C 33822.8 hPa WNW 46.7 km/h 75.2 km/h 82 % 0 mm 0 W/m2
23:40 -14.1 °C -15.8 °C 33822.8 hPa West 15.6 km/h 82.9 km/h 81 % 7.62 mm 0 W/m2
23:45 -14.1 °C -15.8 °C 33822.8 hPa WNW 25.9 km/h 54.4 km/h 81 % 7.62 mm 0 W/m2
23:50 -14.1 °C -15.7 °C 33799.1 hPa NW 18.2 km/h 62.1 km/h 82 % 7.62 mm 0 W/m2
23:55 -14.1 °C -16 °C 33788.9 hPa WNW 31.1 km/h 62.1 km/h 78 % 7.62 mm 0 W/m2
Avec l'autorisation de Weather Underground - 1.75 mb